Probability
0 0 0 0 0 0 0 0 0 0 0 1 2 4 9 20 33 45 55 64 66 60 52 48 47 46 43 38 33 30 25 23 27 31 34 35 35 34 32 32 32 32 33 33
0 0 0 0 0 0 0 0 0 0 0 0 1 2 5 11 22 34 47 57 59 51 42 37 34 30 27 24 21 19 17 17 20 23 25 26 24 21 19 19 19 19 20 20
0 0 0 0 0 0 0 0 0 0 0 0 0 1 1 5 14 25 36 44 43 36 26 21 17 14 11 10 9 9 10 11 12 14 17 17 13 9 7 6 6 6 7 7
0 0 0 0 0 0 0 0 0 0 0 0 0 0 0 3 11 17 23 27 26 20 14 10 9 7 5 4 4 5 6 7 8 10 13 12 8 4 2 1 1 1 1 2
0 0 0 0 0 0 0 0 0 0 0 0 0 0 0 1 4 7 9 11 11 8 5 4 4 2 1 0 1 2 4 4 5 8 9 6 3 1 0 0 0 0 0 0
0 0 0 0 0 0 0 0 0 0 0 0 0 0 0 0 0 1 1 2 2 2 2 1 1 1 0 0 1 2 3 3 4 5 5 2 1 0 0 0 0 0 0 0
0 0 0 0 0 0 0 0 0 0 0 0 0 0 0 0 0 0 0 0 0 0 0 0 0 0 0 0 0 2 3 3 2 2 1 0 0 0 0 0 0 0 0 0
0 0 0 0 0 0 0 0 0 0 0 0 0 0 0 0 0 0 0 0 0 0 0 0 0 0 0 0 1 2 3 2 1 0 0 0 0 0 0 0 0 0 0 0
0 0 0 0 0 0 0 0 0 0 0 0 0 0 0 0 0 0 0 0 0 0 0 0 0 0 0 0 1 3 3 2 1 0 0 0 0 0 0 0 0 0 0 0
0 0 0 0 0 0 0 0 0 0 0 0 0 0 0 0 0 0 0 0 0 0 0 0 0 0 0 0 0 1 2 2 1 0 0 0 0 0 0 0 0 0 0 0
0 0 0 0 0 0 0 0 0 0 0 0 0 0 0 0 0 0 0 0 0 0 0 0 0 0 0 0 0 0 1 1 0 0 0 0 0 0 0 0 0 0 0 0
0 0 0 0 0 0 0 0 0 0 0 0 0 0 0 0 0 0 0 0 0 0 0 0 0 0 0 0 0 0 0 0 0 0 0 0 0 0 0 0 0 0 0 0
0 0 0 0 0 0 0 0 0 0 0 0 0 0 0 0 0 0 0 0 0 0 0 0 0 0 0 0 0 0 0 0 0 0 0 0 0 0 0 0 0 0 0 0
0 0 0 0 0 0 0 0 0 0 0 0 0 0 0 0 0 0 0 0 0 0 0 0 0 0 0 0 0 0 0 0 0 0 0 0 0 0 0 0 0 0 0 0
0 0 0 0 0 0 0 0 0 0 0 0 0 0 0 0 0 0 0 0 0 0 0 0 0 0 0 0 0 0 0 0 0 0 0 0 0 0 0 0 0 0 0 0
0 0 0 0 0 0 0 0 0 0 0 0 0 0 0 0 0 0 0 0 0 0 0 0 0 0 0 0 0 0 0 0 0 0 0 0 0 0 0 0 0 0 0 0
0 0 0 0 0 0 0 0 0 0 0 0 0 0 0 0 0 0 0 0 0 0 0 0 0 0 0 0 0 0 0 0 0 0 0 0 0 0 0 0 0 0 0 0
0 0 0 0 0 0 0 0 0 0 0 0 0 0 0 0 0 0 0 0 0 0 0 0 0 0 0 0 0 0 0 0 0 0 0 0 0 0 0 0 0 0 0 0
0 0 0 0 0 0 0 0 0 0 0 0 0 0 0 0 0 0 0 0 0 0 0 0 0 0 0 0 0 0 0 0 0 0 0 0 0 0 0 0 0 0 0 0
0 0 0 0 0 0 0 0 0 0 0 0 0 0 0 0 0 0 0 0 0 0 0 0 0 0 0 0 0 0 0 0 0 0 0 0 0 0 0 0 0 0 0 0
0 0 0 0 0 0 0 0 0 0 0 0 0 0 0 0 0 0 0 0 0 0 0 0 0 0 0 0 0 0 0 0 0 0 0 0 0 0 0 0 0 0 0 0
0 0 0 0 0 0 0 0 0 0 0 0 0 0 0 0 0 0 0 0 0 0 0 0 0 0 0 0 0 0 0 0 0 0 0 0 0 0 0 0 0 0 0 0
0 0 0 0 0 0 0 0 0 0 0 0 0 0 0 0 0 0 0 0 0 0 0 0 0 0 0 0 0 0 0 0 0 0 0 0 0 0 0 0 0 0 0 0
0 0 0 0 0 0 0 0 0 0 0 0 0 0 0 0 0 0 0 0 0 0 0 0 0 0 0 0 0 0 0 0 0 0 0 0 0 0 0 0 0 0 0 0
0 0 0 0 0 0 0 0 0 0 0 0 0 0 0 0 0 0 0 0 0 0 0 0 0 0 0 0 0 0 0 0 0 0 0 0 0 0 0 0 0 0 0 0
0 0 0 0 0 0 0 0 0 0 0 0 0 0 0 0 0 0 0 0 0 0 0 0 0 0 0 0 0 0 0 0 0 0 0 0 0 0 0 0 0 0 0 0
Wind_Speed
3 3 2 5 5 3 1 1 2 4 3 4 4 4 5 5 4 4 4 5 6 5 4 4 6 7 7 6 7 7 6 5 3 2 2 2 3 2 2 2 3 3 4 4
4 3 6 4 3 2 2 1 1 3 4 3 2 3 4 4 2 1 4 5 6 5 4 3 4 5 6 6 6 5 5 4 4 2 2 1 1 1 2 2 3 4 4 4
3 6 3 1 2 3 1 3 2 2 4 5 3 5 4 4 4 4 2 3 4 6 6 5 4 4 4 5 6 5 5 4 3 2 1 1 2 2 2 3 3 4 5 6
3 5 2 1 1 4 1 3 2 1 2 3 3 2 5 3 3 2 1 3 4 5 5 5 5 5 5 5 4 3 3 2 2 1 1 1 1 2 3 2 3 5 6 6
5 3 3 2 2 1 2 3 3 2 2 2 4 1 7 3 2 3 4 5 6 7 7 7 7 6 5 3 3 3 2 2 2 2 2 2 2 2 2 3 5 5 5 6
4 3 1 1 2 2 3 5 6 5 5 3 2 0 5 4 5 5 6 8 8 7 7 7 5 3 3 2 3 3 4 3 2 2 2 2 3 3 3 4 4 5 4 5
7 7 5 1 3 5 6 7 6 7 6 4 3 1 8 6 5 6 7 8 7 6 6 6 5 4 4 5 5 4 4 4 3 3 3 3 3 3 3 4 4 5 5 5
2 6 5 2 1 2 1 7 6 3 4 5 4 3 6 4 4 3 2 1 3 4 4 5 4 4 4 5 5 4 4 4 3 3 3 2 2 2 2 3 3 4 4 6
3 5 5 2 2 3 3 2 5 6 2 2 5 6 8 8 11 9 7 6 6 6 6 5 5 3 3 3 2 2 3 3 3 4 3 3 3 3 3 3 3 4 4 5
6 4 5 6 4 4 2 7 5 5 4 3 5 4 5 10 11 10 9 9 9 9 10 9 8 8 7 5 5 4 3 3 4 4 4 3 4 4 3 3 4 4 5 6
3 3 5 6 3 3 2 3 5 4 4 5 4 6 1 3 5 6 8 8 9 10 10 10 9 9 9 9 8 7 6 6 5 5 5 5 5 4 3 3 4 4 4 5
3 5 2 5 5 2 1 3 5 2 3 4 3 6 3 4 4 5 7 8 8 9 9 10 10 10 11 11 10 9 8 7 7 6 6 7 6 5 4 4 4 4 4 5
6 6 3 8 7 4 1 2 3 4 3 4 4 5 3 4 5 6 6 7 8 9 10 10 11 11 11 10 9 9 8 8 8 7 7 7 7 6 6 5 4 4 3 4
7 5 6 7 8 5 3 2 2 5 3 5 7 4 2 5 6 6 6 7 7 8 9 9 9 9 8 8 8 9 9 9 9 9 8 8 8 8 7 6 5 4 3 3
5 4 6 7 6 2 2 3 2 1 3 5 2 3 3 4 5 5 6 7 9 10 10 10 9 8 9 9 9 9 9 9 9 9 9 9 8 7 6 6 6 5 4 3
3 2 2 4 3 1 1 5 4 4 4 3 5 5 5 5 6 7 8 9 10 11 11 11 10 10 10 10 10 10 10 10 9 9 10 9 8 6 7 7 6 6 5 3
1 3 2 4 3 2 4 7 4 5 5 4 3 3 7 9 11 11 10 9 10 12 13 13 12 11 10 10 10 9 9 9 9 9 9 9 8 7 7 7 7 7 6 5
5 4 2 1 2 1 2 4 6 5 4 5 4 4 7 8 11 10 8 7 9 11 12 13 12 12 11 11 10 9 9 9 9 8 9 8 8 8 7 6 8 9 6 6
3 5 3 2 0 2 3 4 6 3 1 4 5 8 9 9 9 7 6 7 9 11 12 12 12 12 11 13 12 10 10 10 9 9 9 8 8 9 8 7 8 8 7 7
6 5 5 2 1 0 2 8 9 3 2 1 6 9 9 8 6 6 7 10 13 14 12 12 11 11 12 13 10 9 11 11 11 11 9 8 8 8 9 8 8 7 8 9
7 6 5 2 1 2 4 11 8 2 5 8 7 8 9 7 9 11 12 14 15 15 15 14 12 11 11 12 9 10 11 12 13 11 10 9 8 8 8 7 7 7 9 10
2 3 3 2 2 2 6 6 4 4 6 7 8 9 10 12 13 14 14 14 13 14 14 14 12 12 12 11 10 11 12 13 11 10 10 10 9 8 8 7 7 7 8 11
3 1 1 2 1 2 3 3 6 6 8 9 8 11 13 13 14 15 14 13 14 14 14 12 12 13 12 11 9 12 13 12 11 10 11 11 10 8 7 6 7 6 7 8
3 2 2 2 1 4 6 6 6 7 9 10 12 13 13 14 16 16 15 14 13 14 14 13 13 13 13 12 11 12 12 11 10 11 11 10 9 9 8 6 5 5 6 7
2 2 2 1 4 7 6 6 8 9 10 12 13 13 13 15 16 17 15 15 14 14 13 12 13 14 15 14 13 13 12 10 10 11 10 10 9 9 8 7 6 7 7 8
1 1 1 3 5 5 9 9 10 11 12 14 15 14 14 14 17 18 17 15 15 14 14 14 15 15 15 14 14 13 12 11 10 10 9 8 7 7 7 7 8 9 10 12
Wind_Direction
18 45 275 239 206 197 175 215 278 292 337 60 62 34 360 5 52 84 99 109 113 106 100 106 117 127 132 146 156 167 177 189 174 181 210 232 249 257 265 269 279 287 283 279
13 304 252 229 189 173 180 143 282 307 1 58 59 20 347 3 5 76 125 126 123 117 115 130 146 153 156 161 169 171 182 184 187 189 198 215 255 282 280 300 314 314 314 306
231 262 279 141 129 135 166 169 205 277 355 26 42 356 350 348 17 44 77 118 133 151 161 175 179 181 170 178 182 182 187 189 198 193 99 29 10 346 331 324 316 316 316 310
279 282 329 71 144 145 227 239 209 167 65 333 30 306 303 334 360 25 130 159 175 189 192 196 199 204 204 206 195 190 187 191 200 171 164 181 228 271 272 290 296 305 307 306
311 320 356 7 309 190 193 65 73 66 114 45 23 100 290 331 297 241 223 212 211 213 212 214 216 216 219 215 201 199 188 201 205 191 190 201 241 254 284 298 301 305 306 305
283 312 320 290 18 38 100 70 50 48 63 53 320 223 281 255 231 223 223 226 227 226 228 234 239 233 227 212 198 192 192 213 218 210 203 207 236 264 292 303 307 309 306 305
337 335 337 6 23 14 62 69 24 5 12 271 286 228 254 263 251 226 221 227 239 242 243 249 252 240 227 211 203 196 195 219 225 218 222 224 230 242 265 288 299 308 311 310
340 312 308 339 187 230 92 128 149 200 233 282 323 244 256 312 332 307 271 283 304 298 290 284 274 252 236 225 210 199 203 222 227 227 234 227 223 232 254 270 283 293 297 298
193 266 294 327 296 152 140 143 159 136 175 268 286 292 310 357 8 8 11 21 6 352 354 348 341 328 312 295 269 232 230 243 243 237 234 233 235 238 252 268 275 285 292 300
171 240 300 322 16 26 114 141 101 117 156 249 285 291 298 332 341 359 16 19 16 18 21 20 21 21 18 13 6 2 334 297 285 270 254 246 241 244 250 262 281 293 301 306
131 166 306 352 19 341 22 75 93 108 153 168 249 269 338 336 343 8 21 22 23 26 26 24 24 23 24 23 20 11 356 339 321 299 278 264 253 245 249 260 275 289 299 310
113 120 289 293 282 272 260 134 137 126 257 188 206 259 29 46 33 43 37 29 28 29 28 26 23 22 22 17 9 3 354 341 324 308 287 268 258 248 247 256 267 280 296 310
140 108 36 344 338 342 38 148 143 130 133 173 194 244 73 43 38 27 27 19 19 21 22 21 21 18 12 5 359 354 349 337 327 319 301 280 262 249 245 248 257 268 285 310
116 123 164 208 229 238 276 276 158 142 186 225 220 194 40 14 15 7 10 10 14 16 15 12 9 3 356 351 346 345 342 338 332 326 313 293 271 252 244 240 243 251 262 289
112 179 221 237 246 229 263 310 344 190 219 220 240 101 24 1 355 348 355 1 9 7 3 359 353 345 341 341 338 337 333 334 333 328 321 305 290 265 247 238 235 238 245 256
79 186 214 283 283 210 46 7 22 36 21 52 87 65 357 345 349 347 350 356 357 352 346 341 336 332 331 329 326 325 323 324 327 327 323 317 308 283 256 243 233 229 233 238
75 129 126 277 312 43 22 1 39 65 32 27 63 19 343 347 346 336 330 335 337 335 329 325 320 316 311 308 307 305 303 307 314 318 321 324 316 299 276 254 236 228 223 216
130 117 132 283 5 252 104 53 75 100 79 58 50 351 335 320 309 294 287 289 303 310 309 307 304 302 299 295 291 289 292 295 299 305 311 317 318 306 291 265 244 233 219 209
113 126 102 90 183 127 102 20 6 327 107 43 349 326 316 308 299 278 258 256 277 288 291 291 289 288 287 286 286 287 288 287 290 291 295 303 311 311 299 277 258 237 218 211
47 68 90 76 327 310 7 321 322 280 199 14 316 307 312 326 317 290 291 297 299 298 297 293 290 287 284 282 280 277 280 282 280 280 281 286 292 301 302 287 272 246 219 213
10 22 52 50 349 85 317 310 326 359 303 303 300 295 297 286 268 277 289 294 294 296 297 297 296 292 285 284 281 275 276 274 272 272 274 278 279 284 292 294 284 259 226 208
36 35 23 13 4 2 338 4 33 272 273 280 286 286 285 283 284 290 292 291 289 292 292 292 291 290 289 287 282 279 277 276 278 277 275 274 274 280 295 299 294 271 234 209
55 40 27 69 109 250 275 255 254 258 274 281 281 284 288 289 289 290 289 287 286 284 285 282 280 283 283 280 272 271 275 277 279 277 272 272 273 270 273 283 291 286 249 214
13 1 95 82 324 281 275 265 267 268 269 276 280 284 286 285 286 286 286 284 281 280 279 277 277 278 279 275 270 266 271 274 273 272 272 271 271 272 269 271 275 278 263 224
332 22 71 21 291 300 289 276 280 291 293 291 289 287 284 283 285 285 286 285 282 281 278 274 273 274 275 274 269 268 269 268 268 269 269 269 267 266 268 268 266 267 261 237
298 126 130 248 254 255 271 279 291 292 286 287 290 290 284 281 283 286 287 285 284 283 281 279 276 275 275 272 268 266 263 260 260 264 265 265 266 266 266 271 279 264 261 249